Location: Obersdorf
(47.4079°N, 10.2781°E)
Time: 04:41:52
(UTC+01:00)

AO-109 - Visible Passes

Search period start: 29 November 2021 00:00
Search period end: 09 December 2021 00:00
Orbit: 473 x 523 km, 60.7° (Epoch: 28 November)

Date Brightness Start Highest point End Pass type
(mag) Time Alt. Az. Time Alt. Az. Time Alt. Az.
29 Nov ? 05:53:15 15° N 05:54:51 19° NNE 05:57:36 10° ENE visible
30 Nov ? 05:32:31 18° N 05:33:17 19° NNE 05:35:59 10° ENE visible
01 Dec ? 05:11:49 18° NNE 05:11:49 18° NNE 05:14:21 10° ENE visible
01 Dec ? 06:46:27 11° NW 06:49:55 83° NE 06:53:35 10° SE visible
02 Dec ? 04:51:10 16° NE 04:51:10 16° NE 04:52:43 10° ENE visible
02 Dec ? 06:25:47 19° NW 06:28:22 79° NE 06:32:02 10° SE visible
03 Dec ? 04:30:33 12° ENE 04:30:33 12° ENE 04:31:05 10° ENE visible
03 Dec ? 06:05:11 31° NW 06:06:48 74° NE 06:10:28 10° SE visible
04 Dec ? 05:44:37 56° NNW 05:45:14 70° NE 05:48:54 10° SE visible
05 Dec ? 05:24:07 58° E 05:24:07 58° E 05:27:18 10° SE visible
05 Dec ? 06:58:46 10° W 07:00:54 15° WSW 07:03:06 10° SSW visible
06 Dec ? 05:03:42 30° ESE 05:03:42 30° ESE 05:05:43 10° SE visible
06 Dec ? 06:38:20 15° W 06:39:22 16° WSW 06:41:42 10° SSW visible
07 Dec ? 04:43:21 15° ESE 04:43:21 15° ESE 04:44:07 10° ESE visible
07 Dec ? 06:17:59 17° SW 06:17:59 17° SW 06:20:16 10° SSW visible
08 Dec ? 05:57:42 15° SSW 05:57:42 15° SSW 05:58:50 10° SSW visible
